This demonstration page uses our WeatherBlox Daily Observations layout. Learn more.

Left ArrowRight Arrow

Hourly Observations for December 13, 2018

Temp ( °F °C ) Dew Point ( °F °C ) Humidity (%) Winds ( mph kmh ) Pressure ( in mb ) Visibility ( mi km ) Precip ( " mm )
12:53 am 00:53 Clear 36 2.2 30 -1.1 79 79 NW 17 28 29.81 1010 10 16 0.00 0.00
1:53 am 01:53 Clear 36 2.2 31 -0.6 82 82 NNW 17 28 29.83 1010 10 16 0.00 0.00
2:53 am 02:53 Mostly Cloudy 37 2.8 33 0.6 86 86 NNW 20 31 29.86 1011 10 16 0.00 0.00
3:53 am 03:53 Cloudy 37 2.8 33 0.6 86 86 undefined N/A 29.88 1012 10 16 0.00 0.00
4:53 am 04:53 Cloudy 38 3.3 34 1.1 86 86 NNW 23 37 29.90 1013 10 16 0.00 0.00
5:53 am 05:53 Cloudy 38 3.3 33 0.6 83 83 NNW 22 35 29.95 1014 10 16 0.00 0.00
6:21 am 06:21 Cloudy 38 3.3 32 0 79 79 NNW 25 41 30.00 1016 10 16 0.00 0.00
6:53 am 06:53 Cloudy 38 3.3 32 0 79 79 NNW 26 43 29.98 1015 10 16 0.00 0.00
7:53 am 07:53 Sunny 36 2.2 31 -0.6 82 82 N 23 37 30.02 1017 10 16 0.00 0.00
8:21 am 08:21 Mostly Cloudy 37 2.8 31 -0.6 79 79 N 21 33 30.06 1018 10 16 0.00 0.00
8:53 am 08:53 Cloudy 37 2.8 31 -0.6 79 79 N 23 37 30.07 1018 10 16 0.00 0.00
9:53 am 09:53 Cloudy 38 3.3 31 -0.6 76 76 N 24 39 30.10 1019 10 16 0.00 0.00
10:53 am 10:53 Cloudy 40 4.4 31 -0.6 70 70 N 26 43 30.12 1020 10 16 0.00 0.00
11:22 am 11:22 Partly Cloudy 41 5 30 -1 66 66 N 23 37 30.15 1021 10 16 0.00 0.00
11:53 am 11:53 Mostly Sunny 40 4.4 30 -1.1 68 68 N 25 41 30.12 1020 10 16 0.00 0.00
12:53 pm 12:53 Sunny 42 5.6 30 -1.1 62 62 N 22 35 30.13 1020 10 16 0.00 0.00
1:53 pm 13:53 Sunny 43 6.1 29 -1.7 58 58 N 23 37 30.14 1021 10 16 0.00 0.00
2:53 pm 14:53 Sunny 42 5.6 27 -2.8 55 55 N 21 33 30.15 1021 10 16 0.00 0.00
3:53 pm 15:53 Sunny 41 5 27 -2.8 57 57 N 17 28 30.17 1022 10 16 0.00 0.00
4:53 pm 16:53 Sunny 38 3.3 27 -2.8 65 65 NNW 16 26 30.19 1022 10 16 0.00 0.00
5:53 pm 17:53 Clear 35 1.7 27 -2.8 72 72 NNW 10 17 30.21 1023 10 16 0.00 0.00
6:53 pm 18:53 Clear 33 0.6 27 -2.8 78 78 NNW 8 13 30.23 1024 10 16 0.00 0.00
7:53 pm 19:53 Clear 32 0 27 -2.8 82 82 NNW 10 17 30.25 1024 10 16 0.00 0.00
8:53 pm 20:53 Clear 31 -0.6 26 -3.3 82 82 NNW 10 17 30.26 1025 10 16 0.00 0.00
9:53 pm 21:53 Clear 31 -0.6 26 -3.3 82 82 NNW 12 19 30.26 1025 10 16 0.00 0.00
10:53 pm 22:53 Clear 31 -0.6 25 -3.9 79 79 NNW 13 20 30.28 1026 10 16 0.00 0.00
11:53 pm 23:53 Clear 30 -1.1 24 -4.4 79 79 NNW 10 17 30.30 1026 10 16 0.00 0.00

Powered by AerisWeather